www.pogodaiklimat.ru

АРХИВ ПОГОДЫ в Дулусе

Время (UTC), дата Ветер
(напр.,м/с)
 
Видим.   Явления Облачность Т
(С)
Тd
(С)
f
(%)
Тe
(С)
Тes
(С)
Комфортность

P
(гПа)

Po
(гПа)
Тmin
(С)
Tmax
(С)
R
(мм)
SD
(см)
01:55 20.03 ЮЗ  16 км    5/0 3300 м
[средняя] 
+3.9  -1.7  67  -2  -2    1016.5  963.5         
02:55 20.03 ЮЗ  16 км    8/0 3600 м
[средняя] 
+3.9  -1.7  67  -2  -2    1015.6  962.5         
03:55 20.03 З  16 км    10/0 2850 м
[средняя] 
+3.3  -1.1  73  -3  -3    1015.0  961.9         
04:55 20.03 З  16 км    10/0 3000 м
[средняя] 
+2.8  -1.1  75  -4  -4    1014.1  961.3  +2.8  +5.6     
05:55 20.03 З  16 км    10/0 2700 м
[средняя] 
+2.8  -1.7  72  -3  -3    1013.2  960.6         
06:55 20.03 З  16 км    10/0 2850 м
[средняя] 
+2.2  -1.7  75  -4  -4    1012.7  960.0         
07:55 20.03 З  16 км    10/0 2250 м
[средняя] 
+2.2  -1.7  75  -5  -5    1011.4  958.7         
08:41 20.03 З  16 км    8/8 510 м
[средняя] 
+1.7  -2.2  75  -6  -6      958.0         
08:55 20.03 З  16 км    10/10 480 м  +1.7  -1.7  78  -5  -5    1010.7  958.0         
09:55 20.03 З  16 км    10/10 420 м  +1.7  -1.7  78  -5  -5    1010.8  958.4         
10:55 20.03 СЗ  16 км    10/10 420 м  +1.7  -1.7  78  -4  -4    1010.6  958.0  +1.7  +2.8     
11:55 20.03 СЗ  16 км    10/10 390 м  +1.7  -1.7  78  -4  -4    1011.0  958.4         
12:55 20.03 СЗ  16 км    10/10 360 м  +1.7  -1.7  78  -4  -4    1011.3  958.7         
13:55 20.03 СЗ  14 км    10/10 360 м  +2.2  -1.7  75  -4  -4    1011.3  958.7         
14:55 20.03 С  16 км    10/10 450 м  +2.8  -1.1  75  -2  -2    1012.2  959.3         
15:55 20.03 С  16 км    8/8 510 м  +3.9  -1.1  70  -1  -0    1012.7  960.0         
16:55 20.03 С  16 км    8/8 600 м  +4.4  -1.1  67  -1  -0    1013.5  960.9  +1.7  +4.4     
17:55 20.03 С  16 км    10/10 660 м  +4.4  -1.1  67  -1  -1    1014.1  961.3         
18:55 20.03 С  16 км    8/8 780 м  +4.4  -1.1  67  -1  -0    1014.6  961.9         
19:55 20.03 С  16 км    10/10 810 м  +4.4  -1.1  67  -1  -1    1015.4  962.5         
20:55 20.03 С  16 км    10/10 750 м  +4.4  -1.1  67  0  0    1016.2  963.2         
21:55 20.03 С  16 км    8/8 1080 м  +4.4  -1.1  67  -1  -1    1016.8  963.8         
22:55 20.03 С  16 км    8/8 780 м  +4.4  -1.1  67  0  0    1017.6  964.5  +3.9  +5.0     
23:55 20.03 С  16 км    8/8 1170 м  +3.9  -1.1  70  0  0    1018.5  965.4         
00:55 21.03 С  16 км    8/8 1170 м  +3.9  -1.1  70  -0  -0    1019.3  966.1         
01:55 21.03 С  16 км    8/8 1260 м  +3.3  -1.7  70  -1  -1    1019.3  966.1         
02:55 21.03 С  16 км    5/5 1140 м  +2.8  -2.2  70  -1  -1    1019.4  966.1         
03:55 21.03 С  16 км    10/10 1110 м  +3.3  -2.2  67  -1  -1    1019.6  966.4         
04:55 21.03 СЗ  16 км    10/10 960 м  +2.8  -2.2  70  -1  -1    1019.5  966.4  +2.8  +4.4     
05:55 21.03 З  16 км    10/10 990 м  +2.8  -2.2  70  -1  -1    1019.4  966.4         
06:55 21.03 З  16 км    10/10 960 м  +2.8  -2.2  70  -1  -1    1019.4  966.4         
07:55 21.03 З  16 км    10/10 960 м  +2.2  -3.3  67  -2  -2    1018.8  965.8         
08:55 21.03 З  16 км    5/5 900 м  -0.6  -3.9  78  -5  -5    1018.3  965.1         
09:55 21.03 З  16 км    2/2 900 м  -1.1  -4.4  78  -7  -7    1017.9  964.8         
10:55 21.03 З  16 км    2/0 3600 м
[средняя] 
-1.7  -4.4  82  -8  -8    1017.6  964.5  -1.7  +3.3     
11:55 21.03 З  16 км    ясно  -0.6  -3.9  78  -7  -7    1017.3  964.1         
12:55 21.03 З  16 км    ясно  +2.2  -2.2  73  -4  -4    1016.3  963.5         
13:55 21.03 З  16 км    ясно  +3.3  -1.7  70  -3  -2    1015.7  962.9         
14:55 21.03 З  16 км    ясно  +5.0  -1.7  62  -1  -1    1014.8  961.9         
15:55 21.03 З  10  16 км    ясно  +6.7  -1.7  55  +1  +1    1013.8  961.3         
16:55 21.03 З  9
{12} 
16 км    ясно  +7.8  -1.7  51  +3  +3    1013.7  961.3  -1.7  +7.8     
17:55 21.03 СЗ  16 км    ясно  +9.4  -1.1  48  +6  +7    1013.3  960.6         
18:55 21.03 СЗ  16 км    ясно  +10.0  -1.7  44  +7  +9    1012.7  960.3         
19:55 21.03 СЗ  10
{12} 
16 км    ясно  +10.6  -2.8  39  +7  +7    1012.6  960.3         
20:55 21.03 СЗ  8
{10} 
16 км    ясно  +11.1  -5.6  31  +8  +9    1012.9  960.6         
21:55 21.03 СЗ  6
{11} 
16 км    ясно  +11.1  -5.6  31  +8  +9    1013.3  960.6         
22:55 21.03 СЗ  5
{9} 
16 км    ясно  +10.6  -7.8  27  +8  +8    1013.9  961.3  +7.2  +11.7     
23:55 21.03 СЗ  6
{10} 
16 км    ясно  +8.9  -6.1  34  +5  +5    1014.9  962.2         

 

Местоположение метеостанции Duluth International Airport: широта 46.8428 долгота -92.2261 высота над уровнем моря 435 м.

В архиве по умолчанию представлена погода в Дулусе за последние 1-2 суток. Обновление информации о фактической погоде в базе происходит ежечасно! Архивные данные за месяц целиком и за предыдущие месяцы Вы можете получить, выбрав интересующий диапазон дат из раскрывающегося списка и нажав кнопку "Ввод!".

Внимание! Архив погоды МЕТАР в базе сайта в настоящее время начинается c 1 января 2011 г. Нет смысла пытаться выбрать более раннюю дату.

Внимание! Время в таблицах - всемирное. Для получения местного времени необходимо прибавить поправку, которая в Дулусе равна -6 ч.

Ветер - указаны скорость ветра в м/с и направление, откуда дует ветер: С - северный, СВ - северо-восточный, В - восточный, ЮВ - юго-восточный, Ю - южный, ЮЗ - юго-западный, З - западный, СЗ - северо-западный.
Видимость - горизонтальная дальность видимости в метрах или километрах. При видимости от 1 до 10 км при отсутствии осадков обычно наблюдается дымка, при ухудшении видимости до 1 км и менее - туман. В сухую погоду видимость может ухудшаться дымом, пылью или мглою.
Атмосферные явления - указаны явления, наблюдавшиеся в указанный момент времени.
Облачность - указаны через наклонную черту верхняя и нижняя облачность в баллах и высота нижней границы облаков в метрах. Внимание: облачность, как и прочие метеорологические величины в США измеряются автоматическими метеостанциями. Указанные значения в баллах носят условный характер и показывают процент времени, в течение которого, в среднем, лазерный луч высотомера отражался от облаков обратно.
T - Температура воздуха - температура, измеренная на высоте 2 м над землей.
Td - Температура точки росы - температура, при понижении до которой содержащийся в воздухе водяной пар достигнет насыщения.
f - Относительная влажность воздуха - влажноcть воздуха, измеренная на высоте 2 м над землей.
Te - Эффективная температура - температура, которую ощущает одетый по сезону человек в тени. Характеристика душности погоды. При расчете учитывается влияние влажности воздуха и скорости ветра на теплоощущения человека.
Tes - Эффективная температура на солнце - температура, которую ощущает человек, с поправкой на солнечный нагрев. Характеристика знойности погоды. Зависит от высоты солнца над горизонтом, облачности и скорости ветра. Ночью, в пасмурную погоду, а также при ветре 12 м/с и более поправка равна нулю.
P - Атмосферное давление - приведенное к уровню моря атмосферное давление.
Po - Атмосферное давление - измеренное на уровне метеостанции атмосферное давление.
Tmin - Минимальная температура - минимум температуры воздуха на высоте 2 м над землей.
Tmax - Максимальная температура - максимум температуры воздуха на высоте 2 м над землей.
R - Количество осадков - Количество выпавших осадков за 3 или 6 часов, мм.
SD - Снежный покров - Высота снежного покрова, см.